Regional Weather Roundup
Issued by NWS Newport/Morehead, NC

Current Version | Previous Version | Graphics & Text | Print | Product List | Glossary Off
Versions: 1 2 3 4 5 6 7 8 9 10 11 12 13 14 15 16 17 18 19 20 21 22 23 24 25 26 27 28 29 30 31 32 33 34 35 36 37 38 39 40 41 42 43 44 45 46 47 48 49 50

000
ASUS42 KMHX 210012
RWRMHX
WEATHER ROUNDUP FOR EASTERN NORTH CAROLINA
NATIONAL WEATHER SERVICE NEWPORT/MOREHEAD CITY NC
800 PM EDT MON APR 20 2015

NOTE: "FAIR" INDICATES FEW OR NO CLOUDS BELOW 12,000 FEET
WITH NO SIGNIFICANT WEATHER AND/OR OBSTRUCTIONS TO VISIBILITY

NCZ015>017-031-032-045>047-102-103-210100-
NORTH COAST

CITY           SKY/WX    TMP DP  RH WIND       PRES   REMARKS
EDENTON        CLOUDY    72  65  77 S13       29.68S
ELIZABETH CITY CLOUDY    72  64  76 S12G20    29.68R
KITTY HAWK     CLOUDY    70  64  81 SW8G20    29.69S
MANTEO         CLOUDY    70  65  83 SW22      29.71R

$$

NCZ045>047-081-094-103-104-210100-
CENTRAL COAST

CITY           SKY/WX    TMP DP  RH WIND       PRES   REMARKS
FRISCO         CLOUDY    67  65  93 SW16G24   29.76R
SWANQUARTER      N/A     70 N/A N/A SW21      29.68S

$$

NCZ095-097-098-100-101-210100-
SOUTHERN COAST

CITY           SKY/WX    TMP DP  RH WIND       PRES   REMARKS
BEAUFORT       CLOUDY    68  65  90 SW13      29.76R
CEDAR ISLAND     N/A     70 N/A N/A SE9G20    29.79R
JACKSONVILLE   CLOUDY    69  63  81 S9G18     29.74R
PINEY ISLAND   CLOUDY   N/A N/A N/A S13       29.75R
WILMINGTON     CLOUDY    69  64  84 S17G24    29.77R


$$

NCZ011>013-027>030-043-044-078>080-089-090>093-098-210100-
COASTAL PLAIN

CITY           SKY/WX    TMP DP  RH WIND       PRES   REMARKS
AHOSKIE        CLOUDY    72  60  66 S5        29.67R
CLINTON        CLOUDY    72  66  83 S6        29.72R
ELIZABETHTOWN  CLOUDY    72  63  73 S5        29.74R
GOLDSBORO      CLOUDY    73  65  76 S9        29.69R
GREENVILLE     CLOUDY    73  61  64 SW13G23   29.72R
HAVELOCK       CLOUDY    69  64  84 S10       29.76R
KENANSVILLE    CLOUDY    71  63  75 CALM      29.74R
KINSTON        NOT AVBL
NEW BERN       CLOUDY    69  62  78 S10       29.74R
RICHLANDS      CLOUDY    70  61  73 S9        29.75R
ROCKY MOUNT    CLOUDY    73  63  70 S13       29.67R
WASHINGTON     CLOUDY    73  63  71 S8G17     29.70R
WHITEVILLE     CLOUDY    69  65  87 S7        29.75R

$$

AMZ130-135-150-152-154-156-158-170-250-252-270-ANZ085-086-088-633-658-670-210100-
MARINE OBSERVATIONS

STATION/POSITION TIME  TEMP    WIND        PRES    WAVE   SWELL
                       AIR SEA DIR/SP/G            HT/PER HT/PER
                 (UTC) (F)     (DEG/KT/KT) (MB)    (FT/S) (FT/S)
CHESAPEAKE LIGHT 2300   63     180/ 25/ 25 1003.9
64 E VA BEACH    2350   61 57  200/ 17/ 19 1005.3    8/ 8   7/ 8
DUCK             2300   72 50  190/ 13/ 17 1004.1
2 E DUCK         2311      57                N/A     5/ 8   2/13
10 NE DUCK       NOT AVBL
OREGON INLET     2300   69 68  190/ 21/ 24 1006.1
HATTERAS CG      2300   70 68  190/ 11/ 15 1006.9
DIAMOND BUOY     2350   74 74  200/ 19/ 23 1007.6    5/ 8   3/ 8
CAPE LOOKOUT     0000   68     190/ 11/ 13 1007.6
BEAUFORT LAB     2300   68 68  170/ 12/ 16 1005.7
27 SE WRIGHTSVLE 2300   68 71  180/ 16/ 19   N/A
5 SE WRIGHTSVLE  2300   67 65  220/ 12/ 16 1007.5
225 S CAPE HAT   2350   74 73  230/ 14/ 16 1011.5    4/15   3/15
41 SE CHARLESTON 2350   74 74  230/ 14/ 17 1008.0    4/ 5   2/ 9

$$



USA.gov is the U.S. government's official web portal to all federal, state and local government web resources and services.